Volver al catálogo

STARLINK-33803

ActivoComunicacionesVLEO
NORAD 63517·PAYLOAD·🇺🇸 United States

Lanzado Apr 7, 2025 desde Vandenberg Space Force Base

Loading…

Próximos Pases (próximas 24 horas)

TLE

ActualizadoSource: CelesTrak SupGP

Época: Sep 15, 2026, 02:43 UTC

1 63517C 25071AA  26258.11368056  .00073555  00000+0  21736-2 0  2583
2 63517  53.1576 338.5681 0001187  93.7999 211.3392 15.34348303    14

Sigue STARLINK-33803 en tiempo real con AllMySat

Download on the App Store